Year,Month,Day,Hour,Minute,Value (Times are PST for temperature in C)
2015,06,14,00,00,13.00
2015,06,14,00,01,13.00
2015,06,14,00,02,13.00
2015,06,14,00,03,13.00
2015,06,14,00,04,13.00
2015,06,14,00,05,13.00
2015,06,14,00,06,13.00
2015,06,14,00,07,13.00
2015,06,14,00,08,13.00
2015,06,14,00,09,13.00
2015,06,14,00,10,13.00
2015,06,14,00,11,13.00
2015,06,14,00,12,13.00
2015,06,14,00,13,12.90
2015,06,14,00,14,12.90
2015,06,14,00,15,12.90
2015,06,14,00,16,12.90
2015,06,14,00,17,12.90
2015,06,14,00,18,13.00
2015,06,14,00,19,13.00
2015,06,14,00,20,13.00
2015,06,14,00,21,13.00
2015,06,14,00,22,13.00
2015,06,14,00,23,13.10
2015,06,14,00,24,13.10
2015,06,14,00,25,13.10
2015,06,14,00,26,13.10
2015,06,14,00,27,13.20
2015,06,14,00,28,13.20
2015,06,14,00,29,13.20
2015,06,14,00,30,13.20
2015,06,14,00,31,13.20
2015,06,14,00,32,13.20
2015,06,14,00,33,13.20
2015,06,14,00,34,13.20
2015,06,14,00,35,13.20
2015,06,14,00,36,13.20
2015,06,14,00,37,13.20
2015,06,14,00,38,13.20
2015,06,14,00,39,13.20
2015,06,14,00,40,13.20
2015,06,14,00,41,13.10
2015,06,14,00,42,13.10
2015,06,14,00,43,13.10
2015,06,14,00,44,13.10
2015,06,14,00,45,13.00
2015,06,14,00,46,13.00
2015,06,14,00,47,12.90
2015,06,14,00,48,12.90
2015,06,14,00,49,12.80
2015,06,14,00,50,12.80
2015,06,14,00,51,12.80
2015,06,14,00,52,12.80
2015,06,14,00,53,12.80
2015,06,14,00,54,12.80
2015,06,14,00,55,12.80
2015,06,14,00,56,12.80
2015,06,14,00,57,12.70
2015,06,14,00,58,12.70
2015,06,14,00,59,12.70
2015,06,14,01,00,12.70
2015,06,14,01,01,12.70
2015,06,14,01,02,12.60
2015,06,14,01,03,12.60
2015,06,14,01,04,12.60
2015,06,14,01,05,12.60
2015,06,14,01,06,12.50
2015,06,14,01,07,12.50
2015,06,14,01,08,12.50
2015,06,14,01,09,12.50
2015,06,14,01,10,12.50
2015,06,14,01,11,12.50
2015,06,14,01,12,12.50
2015,06,14,01,13,12.50
2015,06,14,01,14,12.50
2015,06,14,01,15,12.50
2015,06,14,01,16,12.40
2015,06,14,01,17,12.40
2015,06,14,01,18,12.40
2015,06,14,01,19,12.40
2015,06,14,01,20,12.30
2015,06,14,01,21,12.30
2015,06,14,01,22,12.30
2015,06,14,01,23,12.30
2015,06,14,01,24,12.30
2015,06,14,01,25,12.20
2015,06,14,01,26,12.20
2015,06,14,01,27,12.20
2015,06,14,01,28,12.20
2015,06,14,01,29,12.20
2015,06,14,01,30,12.10
2015,06,14,01,31,12.10
2015,06,14,01,32,12.00
2015,06,14,01,33,12.00
2015,06,14,01,34,11.90
2015,06,14,01,35,11.90
2015,06,14,01,36,11.90
2015,06,14,01,37,11.80
2015,06,14,01,38,11.80
2015,06,14,01,39,11.80
2015,06,14,01,40,11.80
2015,06,14,01,41,11.80
2015,06,14,01,42,11.80
2015,06,14,01,43,11.80
2015,06,14,01,44,11.70
2015,06,14,01,45,11.70
2015,06,14,01,46,11.70
2015,06,14,01,47,11.70
2015,06,14,01,48,11.60
2015,06,14,01,49,11.60
2015,06,14,01,50,11.50
2015,06,14,01,51,11.50
2015,06,14,01,52,11.40
2015,06,14,01,53,11.40
2015,06,14,01,54,11.40
2015,06,14,01,55,11.30
2015,06,14,01,56,11.30
2015,06,14,01,57,11.30
2015,06,14,01,58,11.30
2015,06,14,01,59,11.30
2015,06,14,02,00,11.30
2015,06,14,02,01,11.30
2015,06,14,02,02,11.30
2015,06,14,02,03,11.30
2015,06,14,02,04,11.30
2015,06,14,02,05,11.40
2015,06,14,02,06,11.40
2015,06,14,02,07,11.40
2015,06,14,02,08,11.40
2015,06,14,02,09,11.40
2015,06,14,02,10,11.40
2015,06,14,02,11,11.40
2015,06,14,02,12,11.40
2015,06,14,02,13,11.40
2015,06,14,02,14,11.40
2015,06,14,02,15,11.40
2015,06,14,02,16,11.30
2015,06,14,02,17,11.30
2015,06,14,02,18,11.20
2015,06,14,02,19,11.20
2015,06,14,02,20,11.20
2015,06,14,02,21,11.20
2015,06,14,02,22,11.20
2015,06,14,02,23,11.10
2015,06,14,02,24,11.10
2015,06,14,02,25,11.10
2015,06,14,02,26,11.10
2015,06,14,02,27,11.10
2015,06,14,02,28,11.00
2015,06,14,02,29,11.00
2015,06,14,02,30,11.00
2015,06,14,02,31,11.00
2015,06,14,02,32,11.00
2015,06,14,02,33,11.00
2015,06,14,02,34,11.00
2015,06,14,02,35,11.00
2015,06,14,02,36,11.00
2015,06,14,02,37,11.00
2015,06,14,02,38,11.00
2015,06,14,02,39,11.00
2015,06,14,02,40,11.00
2015,06,14,02,41,11.00
2015,06,14,02,42,11.00
2015,06,14,02,43,10.90
2015,06,14,02,44,10.90
2015,06,14,02,45,10.90
2015,06,14,02,46,10.90
2015,06,14,02,47,10.80
2015,06,14,02,48,10.80
2015,06,14,02,49,10.80
2015,06,14,02,50,10.80
2015,06,14,02,51,10.80
2015,06,14,02,52,10.80
2015,06,14,02,53,10.70
2015,06,14,02,54,10.70
2015,06,14,02,55,10.70
2015,06,14,02,56,10.70
2015,06,14,02,57,10.70
2015,06,14,02,58,10.70
2015,06,14,02,59,10.70
2015,06,14,03,00,10.70
2015,06,14,03,01,10.70
2015,06,14,03,02,10.80
2015,06,14,03,03,10.80
2015,06,14,03,04,10.90
2015,06,14,03,05,10.90
2015,06,14,03,06,11.00
2015,06,14,03,07,11.10
2015,06,14,03,08,11.10
2015,06,14,03,09,11.10
2015,06,14,03,10,11.10
2015,06,14,03,11,11.20
2015,06,14,03,12,11.30
2015,06,14,03,13,11.30
2015,06,14,03,14,11.30
2015,06,14,03,15,11.30
2015,06,14,03,16,11.30
2015,06,14,03,17,11.20
2015,06,14,03,18,11.20
2015,06,14,03,19,11.20
2015,06,14,03,20,11.20
2015,06,14,03,21,11.20
2015,06,14,03,22,11.20
2015,06,14,03,23,11.20
2015,06,14,03,24,11.20
2015,06,14,03,25,11.10
2015,06,14,03,26,11.10
2015,06,14,03,27,11.00
2015,06,14,03,28,11.00
2015,06,14,03,29,11.00
2015,06,14,03,30,10.90
2015,06,14,03,31,10.90
2015,06,14,03,32,10.90
2015,06,14,03,33,10.90
2015,06,14,03,34,10.90
2015,06,14,03,35,10.90
2015,06,14,03,36,10.90
2015,06,14,03,37,10.90
2015,06,14,03,38,10.90
2015,06,14,03,39,10.90
2015,06,14,03,40,11.00
2015,06,14,03,41,11.00
2015,06,14,03,42,11.00
2015,06,14,03,43,11.10
2015,06,14,03,44,11.10
2015,06,14,03,45,11.10
2015,06,14,03,46,11.20
2015,06,14,03,47,11.20
2015,06,14,03,48,11.20
2015,06,14,03,49,11.20
2015,06,14,03,50,11.20
2015,06,14,03,51,11.10
2015,06,14,03,52,11.10
2015,06,14,03,53,11.20
2015,06,14,03,54,11.20
2015,06,14,03,55,11.20
2015,06,14,03,56,11.20
2015,06,14,03,57,11.20
2015,06,14,03,58,11.20
2015,06,14,03,59,11.20
2015,06,14,04,00,11.20
2015,06,14,04,01,11.20
2015,06,14,04,02,11.20
2015,06,14,04,03,11.20
2015,06,14,04,04,11.10
2015,06,14,04,05,11.10
2015,06,14,04,06,11.20
2015,06,14,04,07,11.20
2015,06,14,04,08,11.20
2015,06,14,04,09,11.20
2015,06,14,04,10,11.10
2015,06,14,04,11,11.10
2015,06,14,04,12,11.10
2015,06,14,04,13,11.10
2015,06,14,04,14,11.00
2015,06,14,04,15,11.00
2015,06,14,04,16,11.00
2015,06,14,04,17,11.00
2015,06,14,04,18,10.90
2015,06,14,04,19,10.90
2015,06,14,04,20,10.80
2015,06,14,04,21,10.80
2015,06,14,04,22,10.70
2015,06,14,04,23,10.70
2015,06,14,04,24,10.70
2015,06,14,04,25,10.70
2015,06,14,04,26,10.70
2015,06,14,04,27,10.70
2015,06,14,04,28,10.70
2015,06,14,04,29,10.70
2015,06,14,04,30,10.70
2015,06,14,04,31,10.70
2015,06,14,04,32,10.70
2015,06,14,04,33,10.80
2015,06,14,04,34,10.80
2015,06,14,04,35,10.80
2015,06,14,04,36,10.80
2015,06,14,04,37,10.80
2015,06,14,04,38,10.80
2015,06,14,04,39,10.70
2015,06,14,04,40,10.70
2015,06,14,04,41,10.70
2015,06,14,04,42,10.70
2015,06,14,04,43,10.60
2015,06,14,04,44,10.60
2015,06,14,04,45,10.60
2015,06,14,04,46,10.60
2015,06,14,04,47,10.60
2015,06,14,04,48,10.60
2015,06,14,04,49,10.60
2015,06,14,04,50,10.60
2015,06,14,04,51,10.50
2015,06,14,04,52,10.50
2015,06,14,04,53,10.50
2015,06,14,04,54,10.40
2015,06,14,04,55,10.40
2015,06,14,04,56,10.40
2015,06,14,04,57,10.30
2015,06,14,04,58,10.30
2015,06,14,04,59,10.30
2015,06,14,05,00,10.30
2015,06,14,05,01,10.30
2015,06,14,05,02,10.40
2015,06,14,05,03,10.40
2015,06,14,05,04,10.50
2015,06,14,05,05,10.50
2015,06,14,05,06,10.50
2015,06,14,05,07,10.60
2015,06,14,05,08,10.60
2015,06,14,05,09,10.50
2015,06,14,05,10,10.50
2015,06,14,05,11,10.50
2015,06,14,05,12,10.50
2015,06,14,05,13,10.40
2015,06,14,05,14,10.40
2015,06,14,05,15,10.40
2015,06,14,05,16,10.30
2015,06,14,05,17,10.30
2015,06,14,05,18,10.30
2015,06,14,05,19,10.30
2015,06,14,05,20,10.30
2015,06,14,05,21,10.20
2015,06,14,05,22,10.20
2015,06,14,05,23,10.20
2015,06,14,05,24,10.20
2015,06,14,05,25,10.30
2015,06,14,05,26,10.30
2015,06,14,05,27,10.30
2015,06,14,05,28,10.40
2015,06,14,05,29,10.40
2015,06,14,05,30,10.40
2015,06,14,05,31,10.40
2015,06,14,05,32,10.40
2015,06,14,05,33,10.30
2015,06,14,05,34,10.30
2015,06,14,05,35,10.30
2015,06,14,05,36,10.30
2015,06,14,05,37,10.30
2015,06,14,05,38,10.30
2015,06,14,05,39,10.30
2015,06,14,05,40,10.30
2015,06,14,05,41,10.30
2015,06,14,05,42,10.30
2015,06,14,05,43,10.40
2015,06,14,05,44,10.40
2015,06,14,05,45,10.40
2015,06,14,05,46,10.50
2015,06,14,05,47,10.50
2015,06,14,05,48,10.60
2015,06,14,05,49,10.60
2015,06,14,05,50,10.60
2015,06,14,05,51,10.70
2015,06,14,05,52,10.70
2015,06,14,05,53,10.80
2015,06,14,05,54,10.80
2015,06,14,05,55,10.80
2015,06,14,05,56,10.90
2015,06,14,05,57,10.90
2015,06,14,05,58,10.90
2015,06,14,05,59,11.00
2015,06,14,06,00,11.10
2015,06,14,06,01,11.10
2015,06,14,06,02,11.20
2015,06,14,06,03,11.20
2015,06,14,06,04,11.30
2015,06,14,06,05,11.30
2015,06,14,06,06,11.40
2015,06,14,06,07,11.40
2015,06,14,06,08,11.40
2015,06,14,06,09,11.50
2015,06,14,06,10,11.50
2015,06,14,06,11,11.50
2015,06,14,06,12,11.50
2015,06,14,06,13,11.50
2015,06,14,06,14,11.50
2015,06,14,06,15,11.40
2015,06,14,06,16,11.30
2015,06,14,06,17,11.30
2015,06,14,06,18,11.30
2015,06,14,06,19,11.30
2015,06,14,06,20,11.30
2015,06,14,06,21,11.40
2015,06,14,06,22,11.40
2015,06,14,06,23,11.50
2015,06,14,06,24,11.70
2015,06,14,06,25,11.80
2015,06,14,06,26,11.90
2015,06,14,06,27,11.90
2015,06,14,06,28,12.00
2015,06,14,06,29,12.10
2015,06,14,06,30,12.20
2015,06,14,06,31,12.40
2015,06,14,06,32,12.50
2015,06,14,06,33,12.50
2015,06,14,06,34,12.60
2015,06,14,06,35,12.70
2015,06,14,06,36,12.80
2015,06,14,06,37,12.80
2015,06,14,06,38,12.80
2015,06,14,06,39,12.90
2015,06,14,06,40,12.90
2015,06,14,06,41,13.00
2015,06,14,06,42,13.00
2015,06,14,06,43,13.10
2015,06,14,06,44,13.10
2015,06,14,06,45,13.20
2015,06,14,06,46,13.20
2015,06,14,06,47,13.40
2015,06,14,06,48,13.50
2015,06,14,06,49,13.60
2015,06,14,06,50,13.70
2015,06,14,06,51,13.80
2015,06,14,06,52,13.90
2015,06,14,06,53,13.90
2015,06,14,06,54,14.00
2015,06,14,06,55,14.10
2015,06,14,06,56,14.20
2015,06,14,06,57,14.20
2015,06,14,06,58,14.30
2015,06,14,06,59,14.40
2015,06,14,07,00,14.50
2015,06,14,07,01,14.60
2015,06,14,07,02,14.70
2015,06,14,07,03,14.80
2015,06,14,07,04,14.80
2015,06,14,07,05,15.00
2015,06,14,07,06,15.00
2015,06,14,07,07,15.10
2015,06,14,07,08,15.10
2015,06,14,07,09,15.10
2015,06,14,07,10,15.10
2015,06,14,07,11,15.10
2015,06,14,07,12,15.10
2015,06,14,07,13,15.00
2015,06,14,07,14,14.90
2015,06,14,07,15,14.80
2015,06,14,07,16,14.70
2015,06,14,07,17,14.70
2015,06,14,07,18,14.60
2015,06,14,07,19,14.60
2015,06,14,07,20,14.50
2015,06,14,07,21,14.50
2015,06,14,07,22,14.50
2015,06,14,07,23,14.40
2015,06,14,07,24,14.40
2015,06,14,07,25,14.40
2015,06,14,07,26,14.40
2015,06,14,07,27,14.40
2015,06,14,07,28,14.40
2015,06,14,07,29,14.40
2015,06,14,07,30,14.40
2015,06,14,07,31,14.40
2015,06,14,07,32,14.50
2015,06,14,07,33,14.50
2015,06,14,07,34,14.50
2015,06,14,07,35,14.50
2015,06,14,07,36,14.40
2015,06,14,07,37,14.30
2015,06,14,07,38,14.20
2015,06,14,07,39,14.10
2015,06,14,07,40,14.00
2015,06,14,07,41,13.90
2015,06,14,07,42,13.80
2015,06,14,07,43,13.70
2015,06,14,07,44,13.70
2015,06,14,07,45,13.70
2015,06,14,07,46,13.70
2015,06,14,07,47,13.70
2015,06,14,07,48,13.80
2015,06,14,07,49,13.80
2015,06,14,07,50,13.80
2015,06,14,07,51,13.90
2015,06,14,07,52,13.90
2015,06,14,07,53,14.00
2015,06,14,07,54,14.00
2015,06,14,07,55,14.10
2015,06,14,07,56,14.00
2015,06,14,07,57,14.00
2015,06,14,07,58,13.90
2015,06,14,07,59,13.80
2015,06,14,08,00,13.80
2015,06,14,08,01,13.80
2015,06,14,08,02,13.80
2015,06,14,08,03,13.80
2015,06,14,08,04,13.80
2015,06,14,08,05,13.80
2015,06,14,08,06,13.80
2015,06,14,08,07,13.80
2015,06,14,08,08,13.90
2015,06,14,08,09,13.90
2015,06,14,08,10,13.90
2015,06,14,08,11,13.90
2015,06,14,08,12,13.90
2015,06,14,08,13,13.90
2015,06,14,08,14,13.80
2015,06,14,08,15,13.80
2015,06,14,08,16,13.70
2015,06,14,08,17,13.70
2015,06,14,08,18,13.70
2015,06,14,08,19,13.70
2015,06,14,08,20,13.70
2015,06,14,08,21,13.80
2015,06,14,08,22,13.80
2015,06,14,08,23,13.90
2015,06,14,08,24,13.90
2015,06,14,08,25,14.00
2015,06,14,08,26,14.00
2015,06,14,08,27,14.00
2015,06,14,08,28,13.90
2015,06,14,08,29,13.90
2015,06,14,08,30,13.90
2015,06,14,08,31,13.90
2015,06,14,08,32,13.90
2015,06,14,08,33,13.90
2015,06,14,08,34,13.90
2015,06,14,08,35,13.90
2015,06,14,08,36,14.00
2015,06,14,08,37,14.10
2015,06,14,08,38,14.10
2015,06,14,08,39,14.10
2015,06,14,08,40,14.20
2015,06,14,08,41,14.20
2015,06,14,08,42,14.20
2015,06,14,08,43,14.20
2015,06,14,08,44,14.20
2015,06,14,08,45,14.10
2015,06,14,08,46,14.10
2015,06,14,08,47,14.10
2015,06,14,08,48,14.10
2015,06,14,08,49,14.10
2015,06,14,08,50,14.20
2015,06,14,08,51,14.20
2015,06,14,08,52,14.20
2015,06,14,08,53,14.30
2015,06,14,08,54,14.30
2015,06,14,08,55,14.40
2015,06,14,08,56,14.50
2015,06,14,08,57,14.60
2015,06,14,08,58,14.70
2015,06,14,08,59,14.70
2015,06,14,09,00,14.80
2015,06,14,09,01,14.80
2015,06,14,09,02,14.90
2015,06,14,09,03,14.90
2015,06,14,09,04,14.90
2015,06,14,09,05,15.00
2015,06,14,09,06,15.00
2015,06,14,09,07,15.00
2015,06,14,09,08,15.00
2015,06,14,09,09,15.20
2015,06,14,09,10,15.30
2015,06,14,09,11,15.50
2015,06,14,09,12,15.60
2015,06,14,09,13,15.80
2015,06,14,09,14,15.80
2015,06,14,09,15,15.80
2015,06,14,09,16,15.80
2015,06,14,09,17,15.80
2015,06,14,09,18,15.70
2015,06,14,09,19,15.70
2015,06,14,09,20,15.70
2015,06,14,09,21,15.70
2015,06,14,09,22,15.60
2015,06,14,09,23,15.60
2015,06,14,09,24,15.60
2015,06,14,09,25,15.60
2015,06,14,09,26,15.60
2015,06,14,09,27,15.60
2015,06,14,09,28,15.60
2015,06,14,09,29,15.70
2015,06,14,09,30,15.80
2015,06,14,09,31,15.90
2015,06,14,09,32,16.00
2015,06,14,09,33,16.30
2015,06,14,09,34,16.70
2015,06,14,09,35,16.90
2015,06,14,09,36,17.10
2015,06,14,09,37,17.40
2015,06,14,09,38,17.60
2015,06,14,09,39,17.80
2015,06,14,09,40,17.90
2015,06,14,09,41,18.00
2015,06,14,09,42,18.10
2015,06,14,09,43,18.20
2015,06,14,09,44,18.30
2015,06,14,09,45,18.30
2015,06,14,09,46,18.30
2015,06,14,09,47,18.40
2015,06,14,09,48,18.40
2015,06,14,09,49,18.60
2015,06,14,09,50,18.80
2015,06,14,09,51,18.90
2015,06,14,09,52,18.90
2015,06,14,09,53,18.80
2015,06,14,09,54,18.70
2015,06,14,09,55,18.60
2015,06,14,09,56,18.40
2015,06,14,09,57,18.20
2015,06,14,09,58,18.00
2015,06,14,09,59,17.70
2015,06,14,10,00,17.30
2015,06,14,10,01,17.00
2015,06,14,10,02,16.80
2015,06,14,10,03,16.60
2015,06,14,10,04,16.50
2015,06,14,10,05,16.40
2015,06,14,10,06,16.40
2015,06,14,10,07,16.30
2015,06,14,10,08,16.30
2015,06,14,10,09,16.20
2015,06,14,10,10,16.20
2015,06,14,10,11,16.20
2015,06,14,10,12,16.10
2015,06,14,10,13,16.00
2015,06,14,10,14,16.00
2015,06,14,10,15,16.00
2015,06,14,10,16,16.00
2015,06,14,10,17,15.90
2015,06,14,10,18,15.90
2015,06,14,10,19,16.00
2015,06,14,10,20,16.00
2015,06,14,10,21,16.00
2015,06,14,10,22,16.00
2015,06,14,10,23,16.10
2015,06,14,10,24,16.10
2015,06,14,10,25,16.20
2015,06,14,10,26,16.20
2015,06,14,10,27,16.30
2015,06,14,10,28,16.20
2015,06,14,10,29,16.20
2015,06,14,10,30,16.10
2015,06,14,10,31,16.00
2015,06,14,10,32,16.00
2015,06,14,10,33,15.90
2015,06,14,10,34,15.90
2015,06,14,10,35,15.80
2015,06,14,10,36,15.70
2015,06,14,10,37,15.70
2015,06,14,10,38,15.70
2015,06,14,10,39,15.80
2015,06,14,10,40,15.80
2015,06,14,10,41,15.80
2015,06,14,10,42,15.80
2015,06,14,10,43,15.80
2015,06,14,10,44,15.70
2015,06,14,10,45,15.70
2015,06,14,10,46,15.70
2015,06,14,10,47,15.80
2015,06,14,10,48,16.00
2015,06,14,10,49,16.00
2015,06,14,10,50,16.10
2015,06,14,10,51,16.10
2015,06,14,10,52,16.00
2015,06,14,10,53,15.90
2015,06,14,10,54,15.80
2015,06,14,10,55,15.80
2015,06,14,10,56,15.70
2015,06,14,10,57,15.60
2015,06,14,10,58,15.60
2015,06,14,10,59,15.60
2015,06,14,11,00,15.60
2015,06,14,11,01,15.60
2015,06,14,11,02,15.70
2015,06,14,11,03,15.70
2015,06,14,11,04,15.70
2015,06,14,11,05,15.80
2015,06,14,11,06,16.00
2015,06,14,11,07,16.10
2015,06,14,11,08,16.20
2015,06,14,11,09,16.20
2015,06,14,11,10,16.20
2015,06,14,11,11,16.30
2015,06,14,11,12,16.40
2015,06,14,11,13,16.40
2015,06,14,11,14,16.40
2015,06,14,11,15,16.50
2015,06,14,11,16,16.60
2015,06,14,11,17,16.60
2015,06,14,11,18,16.60
2015,06,14,11,19,16.70
2015,06,14,11,20,16.80
2015,06,14,11,21,16.90
2015,06,14,11,22,17.00
2015,06,14,11,23,17.00
2015,06,14,11,24,17.00
2015,06,14,11,25,16.90
2015,06,14,11,26,16.70
2015,06,14,11,27,16.60
2015,06,14,11,28,16.60
2015,06,14,11,29,16.60
2015,06,14,11,30,16.60
2015,06,14,11,31,16.60
2015,06,14,11,32,16.70
2015,06,14,11,33,16.80
2015,06,14,11,34,17.00
2015,06,14,11,35,17.10
2015,06,14,11,36,17.00
2015,06,14,11,37,16.90
2015,06,14,11,38,16.80
2015,06,14,11,39,16.70
2015,06,14,11,40,16.70
2015,06,14,11,41,16.70
2015,06,14,11,42,16.60
2015,06,14,11,43,16.30
2015,06,14,11,44,16.20
2015,06,14,11,45,16.30
2015,06,14,11,46,16.30
2015,06,14,11,47,16.50
2015,06,14,11,48,16.50
2015,06,14,11,49,16.50
2015,06,14,11,50,16.40
2015,06,14,11,51,16.30
2015,06,14,11,52,16.30
2015,06,14,11,53,16.40
2015,06,14,11,54,16.50
2015,06,14,11,55,16.60
2015,06,14,11,56,16.50
2015,06,14,11,57,16.50
2015,06,14,11,58,16.40
2015,06,14,11,59,16.40
2015,06,14,12,00,16.30
2015,06,14,12,01,16.30
2015,06,14,12,02,16.20
2015,06,14,12,03,16.20
2015,06,14,12,04,16.20
2015,06,14,12,05,16.30
2015,06,14,12,06,16.40
2015,06,14,12,07,16.50
2015,06,14,12,08,16.50
2015,06,14,12,09,16.50
2015,06,14,12,10,16.50
2015,06,14,12,11,16.40
2015,06,14,12,12,16.40
2015,06,14,12,13,16.30
2015,06,14,12,14,16.30
2015,06,14,12,15,16.30
2015,06,14,12,16,16.30
2015,06,14,12,17,16.30
2015,06,14,12,18,16.30
2015,06,14,12,19,16.20
2015,06,14,12,20,16.10
2015,06,14,12,21,16.10
2015,06,14,12,22,16.00
2015,06,14,12,23,16.00
2015,06,14,12,24,16.10
2015,06,14,12,25,16.30
2015,06,14,12,26,16.40
2015,06,14,12,27,16.60
2015,06,14,12,28,16.60
2015,06,14,12,29,16.70
2015,06,14,12,30,16.70
2015,06,14,12,31,16.70
2015,06,14,12,32,16.60
2015,06,14,12,33,16.50
2015,06,14,12,34,16.60
2015,06,14,12,35,16.70
2015,06,14,12,36,16.70
2015,06,14,12,37,16.80
2015,06,14,12,38,16.80
2015,06,14,12,39,16.80
2015,06,14,12,40,16.70
2015,06,14,12,41,16.60
2015,06,14,12,42,16.50
2015,06,14,12,43,16.60
2015,06,14,12,44,16.60
2015,06,14,12,45,16.70
2015,06,14,12,46,16.80
2015,06,14,12,47,16.80
2015,06,14,12,48,16.90
2015,06,14,12,49,16.90
2015,06,14,12,50,16.90
2015,06,14,12,51,16.80
2015,06,14,12,52,16.80
2015,06,14,12,53,16.80
2015,06,14,12,54,16.80
2015,06,14,12,55,16.70
2015,06,14,12,56,16.60
2015,06,14,12,57,16.60
2015,06,14,12,58,16.60
2015,06,14,12,59,16.70
2015,06,14,13,00,16.70
2015,06,14,13,01,16.70
2015,06,14,13,02,16.70
2015,06,14,13,03,16.70
2015,06,14,13,04,16.80
2015,06,14,13,05,16.90
2015,06,14,13,06,17.00
2015,06,14,13,07,17.10
2015,06,14,13,08,17.10
2015,06,14,13,09,17.00
2015,06,14,13,10,16.90
2015,06,14,13,11,16.90
2015,06,14,13,12,17.00
2015,06,14,13,13,17.10
2015,06,14,13,14,17.20
2015,06,14,13,15,17.30
2015,06,14,13,16,17.40
2015,06,14,13,17,17.40
2015,06,14,13,18,17.40
2015,06,14,13,19,17.40
2015,06,14,13,20,17.40
2015,06,14,13,21,17.40
2015,06,14,13,22,17.50
2015,06,14,13,23,17.60
2015,06,14,13,24,17.70
2015,06,14,13,25,17.90
2015,06,14,13,26,18.00
2015,06,14,13,27,18.10
2015,06,14,13,28,18.20
2015,06,14,13,29,18.20
2015,06,14,13,30,18.10
2015,06,14,13,31,18.00
2015,06,14,13,32,18.00
2015,06,14,13,33,18.00
2015,06,14,13,34,17.90
2015,06,14,13,35,17.70
2015,06,14,13,36,17.70
2015,06,14,13,37,17.70
2015,06,14,13,38,17.70
2015,06,14,13,39,17.80
2015,06,14,13,40,17.90
2015,06,14,13,41,17.80
2015,06,14,13,42,17.90
2015,06,14,13,43,17.80
2015,06,14,13,44,17.60
2015,06,14,13,45,17.40
2015,06,14,13,46,17.30
2015,06,14,13,47,17.20
2015,06,14,13,48,17.20
2015,06,14,13,49,17.20
2015,06,14,13,50,17.20
2015,06,14,13,51,17.30
2015,06,14,13,52,17.50
2015,06,14,13,53,17.50
2015,06,14,13,54,17.40
2015,06,14,13,55,17.30
2015,06,14,13,56,17.10
2015,06,14,13,57,17.00
2015,06,14,13,58,16.90
2015,06,14,13,59,17.00
2015,06,14,14,00,17.00
2015,06,14,14,01,17.10
2015,06,14,14,02,17.20
2015,06,14,14,03,17.40
2015,06,14,14,04,17.60
2015,06,14,14,05,17.70
2015,06,14,14,06,17.70
2015,06,14,14,07,17.60
2015,06,14,14,08,17.60
2015,06,14,14,09,17.60
2015,06,14,14,10,17.60
2015,06,14,14,11,17.60
2015,06,14,14,12,17.70
2015,06,14,14,13,17.80
2015,06,14,14,14,17.90
2015,06,14,14,15,18.00
2015,06,14,14,16,18.10
2015,06,14,14,17,18.00
2015,06,14,14,18,17.60
2015,06,14,14,19,17.40
2015,06,14,14,20,17.20
2015,06,14,14,21,17.10
2015,06,14,14,22,17.20
2015,06,14,14,23,17.40
2015,06,14,14,24,17.60
2015,06,14,14,25,17.80
2015,06,14,14,26,18.00
2015,06,14,14,27,18.10
2015,06,14,14,28,18.20
2015,06,14,14,29,18.20
2015,06,14,14,30,18.30
2015,06,14,14,31,18.40
2015,06,14,14,32,18.50
2015,06,14,14,33,18.30
2015,06,14,14,34,18.20
2015,06,14,14,35,18.00
2015,06,14,14,36,17.90
2015,06,14,14,37,17.90
2015,06,14,14,38,17.90
2015,06,14,14,39,17.90
2015,06,14,14,40,17.90
2015,06,14,14,41,18.00
2015,06,14,14,42,18.10
2015,06,14,14,43,18.30
2015,06,14,14,44,18.40
2015,06,14,14,45,18.50
2015,06,14,14,46,18.50
2015,06,14,14,47,18.30
2015,06,14,14,48,18.20
2015,06,14,14,49,18.20
2015,06,14,14,50,18.10
2015,06,14,14,51,18.10
2015,06,14,14,52,18.20
2015,06,14,14,53,18.40
2015,06,14,14,54,18.60
2015,06,14,14,55,18.80
2015,06,14,14,56,18.90
2015,06,14,14,57,18.90
2015,06,14,14,58,18.70
2015,06,14,14,59,18.50
2015,06,14,15,00,18.40
2015,06,14,15,01,18.30
2015,06,14,15,02,18.40
2015,06,14,15,03,18.60
2015,06,14,15,04,18.70
2015,06,14,15,05,18.70
2015,06,14,15,06,18.80
2015,06,14,15,07,18.80
2015,06,14,15,08,18.90
2015,06,14,15,09,19.00
2015,06,14,15,10,19.30
2015,06,14,15,11,19.20
2015,06,14,15,12,19.00
2015,06,14,15,13,18.90
2015,06,14,15,14,18.90
2015,06,14,15,15,18.90
2015,06,14,15,16,18.80
2015,06,14,15,17,18.70
2015,06,14,15,18,18.60
2015,06,14,15,19,18.50
2015,06,14,15,20,18.40
2015,06,14,15,21,18.30
2015,06,14,15,22,18.30
2015,06,14,15,23,18.20
2015,06,14,15,24,18.10
2015,06,14,15,25,18.00
2015,06,14,15,26,18.10
2015,06,14,15,27,18.20
2015,06,14,15,28,18.30
2015,06,14,15,29,18.30
2015,06,14,15,30,18.30
2015,06,14,15,31,18.20
2015,06,14,15,32,18.10
2015,06,14,15,33,17.90
2015,06,14,15,34,17.80
2015,06,14,15,35,17.70
2015,06,14,15,36,17.70
2015,06,14,15,37,17.70
2015,06,14,15,38,17.60
2015,06,14,15,39,17.70
2015,06,14,15,40,17.70
2015,06,14,15,41,17.80
2015,06,14,15,42,17.80
2015,06,14,15,43,17.80
2015,06,14,15,44,17.80
2015,06,14,15,45,17.80
2015,06,14,15,46,17.90
2015,06,14,15,47,18.10
2015,06,14,15,48,18.30
2015,06,14,15,49,18.50
2015,06,14,15,50,18.80
2015,06,14,15,51,19.00
2015,06,14,15,52,19.20
2015,06,14,15,53,19.40
2015,06,14,15,54,19.60
2015,06,14,15,55,19.70
2015,06,14,15,56,19.80
2015,06,14,15,57,19.80
2015,06,14,15,58,19.90
2015,06,14,15,59,20.00
2015,06,14,16,00,20.10
2015,06,14,16,01,20.20
2015,06,14,16,02,20.20
2015,06,14,16,03,19.90
2015,06,14,16,04,19.60
2015,06,14,16,05,19.20
2015,06,14,16,06,19.00
2015,06,14,16,07,18.90
2015,06,14,16,08,18.90
2015,06,14,16,09,18.90
2015,06,14,16,10,19.00
2015,06,14,16,11,19.10
2015,06,14,16,12,19.10
2015,06,14,16,13,19.20
2015,06,14,16,14,19.40
2015,06,14,16,15,19.40
2015,06,14,16,16,19.50
2015,06,14,16,17,19.50
2015,06,14,16,18,19.70
2015,06,14,16,19,19.60
2015,06,14,16,20,19.50
2015,06,14,16,21,19.40
2015,06,14,16,22,19.30
2015,06,14,16,23,19.40
2015,06,14,16,24,19.50
2015,06,14,16,25,19.60
2015,06,14,16,26,19.60
2015,06,14,16,27,19.70
2015,06,14,16,28,19.80
2015,06,14,16,29,19.80
2015,06,14,16,30,19.80
2015,06,14,16,31,19.90
2015,06,14,16,32,19.90
2015,06,14,16,33,19.90
2015,06,14,16,34,19.80
2015,06,14,16,35,19.80
2015,06,14,16,36,19.80
2015,06,14,16,37,19.90
2015,06,14,16,38,20.00
2015,06,14,16,39,20.20
2015,06,14,16,40,20.30
2015,06,14,16,41,20.40
2015,06,14,16,42,20.50
2015,06,14,16,43,20.60
2015,06,14,16,44,20.60
2015,06,14,16,45,20.70
2015,06,14,16,46,20.70
2015,06,14,16,47,20.80
2015,06,14,16,48,20.70
2015,06,14,16,49,20.60
2015,06,14,16,50,20.50
2015,06,14,16,51,20.40
2015,06,14,16,52,20.40
2015,06,14,16,53,20.40
2015,06,14,16,54,20.40
2015,06,14,16,55,20.40
2015,06,14,16,56,20.40
2015,06,14,16,57,20.40
2015,06,14,16,58,20.40
2015,06,14,16,59,20.50
2015,06,14,17,00,20.50
2015,06,14,17,01,20.60
2015,06,14,17,02,20.50
2015,06,14,17,03,20.40
2015,06,14,17,04,20.40
2015,06,14,17,05,20.50
2015,06,14,17,06,20.50
2015,06,14,17,07,20.40
2015,06,14,17,08,20.40
2015,06,14,17,09,20.20
2015,06,14,17,10,20.20
2015,06,14,17,11,20.20
2015,06,14,17,12,20.30
2015,06,14,17,13,20.40
2015,06,14,17,14,20.60
2015,06,14,17,15,20.70
2015,06,14,17,16,20.80
2015,06,14,17,17,21.00
2015,06,14,17,18,21.10
2015,06,14,17,19,21.20